Zurück zum Katalog

STARLINK-36641

AktivKommunikationSSO
NORAD 67589·PAYLOAD·🇺🇸 United States

Gestartet Jan 29, 2026 von Vandenberg Space Force Base

Loading…

Nächste Überflüge (nächste 24 Stunden)

TLE

AktuellSource: CelesTrak SupGP

Epoche: Sep 14, 2026, 21:01 UTC

1 67589C 26018A   26257.87618056 -.00034767  00000+0 -10792-2 0  2571
2 67589  97.2853 321.3548 0000937  97.5632 300.5232 15.33458190    13

Verfolge STARLINK-36641 in Echtzeit mit AllMySat

Download on the App Store